Zurück zum Katalog

OBJECT A

AktivSSO
NORAD 100237·UNKNOWN·🇨🇳 China

Gestartet Aug 5, 2026 von Yellow Sea Launch Area

Loading…

Nächste Überflüge (nächste 24 Stunden)

TLE

AktuellSource: Space-Track

Epoche: Sep 14, 2026, 14:37 UTC

1 A0237U 26178A   26257.60950605  .00000055  00000-0  37567-4 0  9991
2 A0237  98.5469 331.2556 0025329 175.8624 184.2773 14.30605192  5798

Verfolge OBJECT A in Echtzeit mit AllMySat

Download on the App Store